Millbury, OH

2:30 AM EST on February 22, 2017 (GMT -0500)
Metcalf

Weather History for KTDZ - July, 2013

Change the Weather History Date:

Tuesday, July 23, 2013

  Actual Average (KTOL) Record (KTOL)
Temperature  
Mean Temperature 76 °F -  
Max Temperature 87 °F 83 °F 99 °F (1933)
Min Temperature 66 °F 60 °F 47 °F (1981)
Cooling Degree Days 12    
Growing Degree Days 26 (Base 50)    
Moisture  
Dew Point 65 °F    
Average Humidity 74    
Maximum Humidity 93    
Minimum Humidity 46    
Precipitation  
Precipitation 0.03 in - - ()
Sea Level Pressure  
Sea Level Pressure 29.75 in    
Wind  
Wind Speed 7 mph (West)    
Max Wind Speed 17 mph    
Max Gust Speed 26 mph    
Visibility 8 miles    
Events      
Averages and records for this station are not official NWS values.
T = Trace of Precipitation, MM = Missing Value Source: NWS Daily Summary

Daily Weather History Graph

Daily Weather History Graph

Search for Another Location

Airport or City:

Trip Planner

Search our weather history database for the weather conditions in past years. The results will help you decide how hot, cold, wet, or windy it might be!

Date:

Astronomy

Jul. 23, 2013 Rise Set
Actual Time 6:20 AM EDT 9:00 PM EDT
Civil Twilight 5:47 AM EDT 9:32 PM EDT
Nautical Twilight 5:07 AM EDT 10:12 PM EDT
Astronomical Twilight 4:21 AM EDT 10:57 PM EDT
Moon 9:25 PM EDT (7/23) 7:29 AM EDT (7/23)
Length of Visible Light 15h 44m
Length of Day
14h 40m
Full, 99% of the Moon is Illuminated
Jul 23
Full
Jul 29
Last Quarter
Aug 6
New
Aug 14
First Quarter
Aug 20
Full

Hourly Weather History & Observations

Time (EDT) Temp. Heat Index Dew Point Humidity Pressure Visibility Wind Dir Wind Speed Gust Speed Precip Events Conditions
12:53 AM 66.9 °F - 64.9 °F 93% 29.81 in 5.0 mi SSW 3.5 mph - N/A   Clear
1:53 AM 66.9 °F - 64.9 °F 93% 29.80 in 4.0 mi Calm Calm - N/A   Clear
2:53 AM 68.0 °F - 64.9 °F 90% 29.79 in 5.0 mi SW 3.5 mph - N/A   Clear
3:53 AM 66.9 °F - 64.0 °F 90% 29.76 in 4.0 mi SSW 3.5 mph - N/A   Clear
4:53 AM 66.9 °F - 64.0 °F 90% 29.75 in 6.0 mi SSW 5.8 mph - N/A   Partly Cloudy
5:53 AM 66.0 °F - 64.0 °F 93% 29.75 in 6.0 mi SSW 5.8 mph - N/A   Clear
6:53 AM 66.9 °F - 64.9 °F 93% 29.76 in 5.0 mi SSW 5.8 mph - N/A   Clear
7:53 AM 68.0 °F - 66.0 °F 93% 29.74 in 5.0 mi South 6.9 mph - N/A   Clear
8:53 AM 72.0 °F - 68.0 °F 87% 29.75 in 7.0 mi SW 9.2 mph - N/A   Clear
9:53 AM 73.9 °F - 70.0 °F 87% 29.74 in 9.0 mi SW 9.2 mph - 0.01 in   Scattered Clouds
10:53 AM 77.0 °F - 69.1 °F 76% 29.73 in 10.0 mi SW 11.5 mph - N/A   Partly Cloudy
11:53 AM 80.1 °F 82.7 °F 68.0 °F 67% 29.73 in 10.0 mi West 9.2 mph - N/A   Clear
12:53 PM 82.0 °F 85.5 °F 69.1 °F 65% 29.73 in 10.0 mi West 12.7 mph 21.9 mph N/A   Partly Cloudy
1:53 PM 84.9 °F 87.6 °F 66.9 °F 55% 29.71 in 10.0 mi WSW 11.5 mph - N/A   Partly Cloudy
2:53 PM 84.9 °F 87.1 °F 66.0 °F 53% 29.70 in 10.0 mi West 17.3 mph 23.0 mph N/A   Partly Cloudy
3:53 PM 87.1 °F 88.3 °F 64.0 °F 46% 29.69 in 10.0 mi West 16.1 mph 25.3 mph N/A   Scattered Clouds
4:53 PM 84.9 °F 87.1 °F 66.0 °F 53% 29.69 in 10.0 mi West 13.8 mph - N/A   Scattered Clouds
5:44 PM 78.8 °F - 66.2 °F 65% 29.72 in 10.0 mi NNW 15.0 mph 26.5 mph N/A   Mostly Cloudy
5:53 PM 79.0 °F - 66.9 °F 66% 29.71 in 10.0 mi North 10.4 mph - N/A   Mostly Cloudy
6:53 PM 75.0 °F - 66.0 °F 73% 29.72 in 10.0 mi NNW 16.1 mph 23.0 mph 0.02 in   Mostly Cloudy
7:53 PM 75.9 °F - 64.9 °F 69% 29.74 in 10.0 mi NNW 13.8 mph 21.9 mph N/A   Partly Cloudy
8:53 PM 75.0 °F - 63.0 °F 66% 29.75 in 10.0 mi NNW 12.7 mph - N/A   Clear
9:53 PM 73.0 °F - 62.1 °F 68% 29.78 in 10.0 mi North 5.8 mph - N/A   Mostly Cloudy
10:53 PM 71.1 °F - 55.9 °F 59% 29.83 in 10.0 mi North 16.1 mph 26.5 mph N/A   Overcast
11:53 PM 66.9 °F - 55.0 °F 66% 29.85 in 10.0 mi North 11.5 mph 23.0 mph N/A   Overcast